User: anonymous   Login
Location: Catstown
(52.4386°N, 7.2633°W)
Time: 09:02:26
(UTC+00:00)
Language:

ARGOS - Orbit

View from above orbital plane
View from above orbital plane
View from above satellite
View from above satellite

Ground track
Ground track

The orbit data is extracted from the following two-line orbital elements,

1 25634U 99008A   21209.92683372 -.00000023  00000-0  84257-5 0  9997
2 25634  98.4166 235.5713 0010295 172.5290 187.6042 14.19399635161146
Epoch (UTC): 28 July 2021 22:14:38
Eccentricity: 0.0010295
inclination: 98.4166°
perigee height: 820 km
apogee height: 835 km
right ascension of ascending node: 235.5713°
argument of perigee: 172.5290°
revolutions per day: 14.19399635
mean anomaly at epoch: 187.6042°
orbit number at epoch: 16114

The dashed part of the orbit path shows where the satellite is in the earth's shadow,  

DLR